NKS260 KATL-KTPA

Flight info

Callsign NKS260
Flight time 1h 3m
Altitude 36000
Route BANNG3 LUCKK HONID MAATY5
Aircraft A321/M-SDE3FGHIRWY/LB1

Departure

Time 2026-05-03 20:15
Airport Hartsfield Jackson Atlanta International Airport (KATL)

Arrival

Time 2026-05-03 21:19
Airport Tampa International Airport (KTPA)
Time Latitude Longitude Altitude Speed Heading
2026-05-03 20:15 33.48039 -84.67933 13620 ft 314 kts 174°
2026-05-03 20:15 33.45867 -84.67525 14275 ft 317 kts 174°
2026-05-03 20:15 33.43670 -84.67112 14887 ft 320 kts 174°
2026-05-03 20:15 33.41493 -84.66488 15495 ft 327 kts 163°
2026-05-03 20:16 33.39331 -84.65400 15658 ft 348 kts 159°
2026-05-03 20:16 33.37084 -84.64196 15788 ft 367 kts 158°
2026-05-03 20:16 33.34717 -84.62910 16097 ft 379 kts 158°
2026-05-03 20:16 33.32296 -84.61589 16643 ft 383 kts 158°
2026-05-03 20:17 33.29860 -84.60261 17233 ft 387 kts 158°
2026-05-03 20:17 33.27400 -84.58925 17851 ft 390 kts 159°
2026-05-03 20:17 33.24922 -84.57584 18445 ft 393 kts 159°
2026-05-03 20:17 33.22418 -84.56232 18961 ft 396 kts 159°
2026-05-03 20:18 33.19887 -84.54872 19491 ft 399 kts 159°
2026-05-03 20:18 33.17345 -84.53506 20033 ft 401 kts 159°
2026-05-03 20:18 33.14815 -84.52150 20565 ft 404 kts 159°
2026-05-03 20:18 33.12241 -84.50771 21095 ft 407 kts 159°
2026-05-03 20:19 33.09648 -84.49382 21638 ft 409 kts 159°
2026-05-03 20:19 33.07030 -84.47982 22160 ft 412 kts 159°
2026-05-03 20:19 33.04400 -84.46576 22673 ft 414 kts 160°
2026-05-03 20:19 33.01797 -84.45182 23161 ft 417 kts 160°
2026-05-03 20:20 32.99137 -84.43763 23685 ft 418 kts 161°
2026-05-03 20:20 32.96397 -84.42664 24085 ft 415 kts 171°
2026-05-03 20:20 32.93555 -84.42121 24479 ft 412 kts 181°
2026-05-03 20:20 32.90696 -84.42031 24867 ft 411 kts 184°
2026-05-03 20:21 32.88011 -84.41986 25235 ft 413 kts 184°
2026-05-03 20:21 32.85135 -84.41932 25631 ft 415 kts 184°
2026-05-03 20:21 32.82231 -84.41873 26029 ft 417 kts 185°
2026-05-03 20:21 32.79361 -84.41811 26404 ft 419 kts 185°
2026-05-03 20:22 32.76429 -84.41747 26771 ft 421 kts 185°
2026-05-03 20:22 32.73498 -84.41686 27161 ft 422 kts 186°
2026-05-03 20:22 32.70540 -84.41625 27549 ft 424 kts 186°
2026-05-03 20:22 32.67585 -84.41569 27927 ft 426 kts 186°
2026-05-03 20:23 32.64617 -84.41513 28301 ft 427 kts 186°
2026-05-03 20:23 32.61636 -84.41454 28659 ft 429 kts 186°
2026-05-03 20:23 32.58636 -84.41393 29008 ft 431 kts 186°
2026-05-03 20:23 32.55669 -84.41332 29334 ft 433 kts 186°
2026-05-03 20:24 32.52650 -84.41269 29669 ft 435 kts 187°
2026-05-03 20:24 32.49610 -84.41204 30008 ft 437 kts 187°
2026-05-03 20:24 32.46566 -84.41138 30310 ft 438 kts 187°
2026-05-03 20:24 32.43504 -84.41076 30636 ft 439 kts 187°
2026-05-03 20:25 32.40454 -84.41016 30947 ft 440 kts 187°
2026-05-03 20:25 32.37430 -84.40958 31302 ft 439 kts 188°
2026-05-03 20:25 32.34384 -84.40899 31746 ft 436 kts 188°
2026-05-03 20:25 32.31352 -84.40837 32183 ft 433 kts 188°
2026-05-03 20:26 32.28345 -84.40771 32611 ft 431 kts 188°
2026-05-03 20:26 32.25341 -84.40708 33027 ft 429 kts 188°
2026-05-03 20:26 32.22399 -84.40650 33443 ft 426 kts 188°
2026-05-03 20:26 32.19444 -84.40593 33882 ft 423 kts 189°
2026-05-03 20:27 32.16514 -84.40535 34308 ft 420 kts 189°
2026-05-03 20:27 32.13601 -84.40477 34656 ft 418 kts 189°
2026-05-03 20:27 32.10687 -84.40420 34969 ft 416 kts 189°
2026-05-03 20:27 32.07789 -84.40368 35116 ft 416 kts 189°
2026-05-03 20:28 32.04912 -84.40312 35157 ft 412 kts 189°
2026-05-03 20:28 31.99207 -84.40193 35154 ft 409 kts 189°
2026-05-03 20:29 31.93549 -84.40084 35121 ft 408 kts 189°
2026-05-03 20:29 31.87877 -84.39977 35153 ft 407 kts 189°
2026-05-03 20:30 31.82193 -84.39859 35154 ft 407 kts 189°
2026-05-03 20:30 31.76543 -84.39744 35161 ft 408 kts 189°
2026-05-03 20:31 31.70864 -84.39630 35173 ft 408 kts 189°
2026-05-03 20:31 31.65188 -84.39517 35148 ft 407 kts 189°
2026-05-03 20:32 31.59523 -84.39470 35163 ft 406 kts 190°
2026-05-03 20:32 31.53868 -84.39507 35168 ft 406 kts 191°
2026-05-03 20:33 31.48220 -84.39542 35170 ft 406 kts 191°
2026-05-03 20:33 31.42602 -84.39558 35173 ft 406 kts 190°
2026-05-03 20:34 31.36946 -84.39566 35137 ft 406 kts 190°
2026-05-03 20:34 31.31294 -84.39569 35150 ft 405 kts 190°
2026-05-03 20:35 31.25649 -84.39570 35157 ft 405 kts 190°
2026-05-03 20:35 31.20040 -84.39573 35157 ft 405 kts 191°
2026-05-03 20:36 31.14401 -84.39586 35155 ft 405 kts 191°
2026-05-03 20:36 31.08761 -84.39594 35121 ft 405 kts 191°
2026-05-03 20:37 31.03160 -84.39597 35139 ft 405 kts 191°
2026-05-03 20:37 30.97517 -84.39607 35139 ft 405 kts 191°
2026-05-03 20:38 30.91876 -84.39614 35149 ft 406 kts 191°
2026-05-03 20:38 30.86220 -84.39621 35153 ft 406 kts 191°
2026-05-03 20:39 30.80608 -84.39625 35127 ft 406 kts 191°
2026-05-03 20:39 30.74965 -84.39636 35143 ft 405 kts 191°
2026-05-03 20:40 30.69321 -84.39649 35150 ft 405 kts 191°
2026-05-03 20:40 30.63668 -84.39660 35156 ft 405 kts 191°
2026-05-03 20:41 30.58055 -84.39665 35153 ft 405 kts 191°
2026-05-03 20:41 30.52408 -84.39671 35154 ft 405 kts 191°
2026-05-03 20:42 30.46801 -84.39677 35151 ft 405 kts 191°
2026-05-03 20:42 30.41161 -84.39686 35151 ft 405 kts 191°
2026-05-03 20:43 30.35494 -84.39314 35147 ft 420 kts 179°
2026-05-03 20:43 30.32653 -84.38281 35142 ft 438 kts 167°
2026-05-03 20:43 30.29933 -84.36525 35142 ft 457 kts 155°
2026-05-03 20:44 30.24988 -84.31703 35098 ft 466 kts 150°
2026-05-03 20:44 30.20081 -84.26817 35081 ft 468 kts 151°
2026-05-03 20:45 30.15128 -84.21924 35106 ft 468 kts 151°
2026-05-03 20:45 30.10168 -84.17048 35123 ft 468 kts 151°
2026-05-03 20:46 30.05208 -84.12160 35121 ft 468 kts 151°
2026-05-03 20:46 30.00253 -84.07268 35123 ft 468 kts 151°
2026-05-03 20:47 29.95330 -84.02418 35096 ft 468 kts 151°
2026-05-03 20:47 29.90355 -83.97536 35111 ft 469 kts 151°
2026-05-03 20:48 29.85388 -83.92663 35126 ft 469 kts 151°
2026-05-03 20:48 29.80241 -83.88240 35111 ft 450 kts 163°
2026-05-03 20:48 29.77508 -83.86481 34934 ft 450 kts 163°
2026-05-03 20:49 29.74777 -83.84728 34698 ft 449 kts 163°
2026-05-03 20:49 29.72038 -83.82972 34471 ft 450 kts 163°
2026-05-03 20:49 29.70226 -83.81808 34319 ft 450 kts 163°
2026-05-03 20:49 29.66606 -83.79476 33942 ft 450 kts 163°
2026-05-03 20:50 29.63873 -83.77712 33676 ft 449 kts 163°
2026-05-03 20:50 29.62069 -83.76550 33498 ft 448 kts 163°
2026-05-03 20:50 29.59351 -83.74803 33230 ft 446 kts 162°
2026-05-03 20:50 29.56655 -83.73072 32927 ft 441 kts 162°
2026-05-03 20:51 29.53983 -83.71354 32417 ft 439 kts 162°
2026-05-03 20:51 29.51331 -83.69647 31924 ft 436 kts 162°
2026-05-03 20:51 29.48697 -83.67952 31433 ft 432 kts 162°
2026-05-03 20:51 29.46073 -83.66266 30937 ft 430 kts 161°
2026-05-03 20:52 29.43472 -83.64598 30447 ft 427 kts 161°
2026-05-03 20:52 29.40885 -83.62941 29924 ft 424 kts 161°
2026-05-03 20:52 29.38314 -83.61296 29414 ft 421 kts 161°
2026-05-03 20:52 29.35802 -83.59689 28970 ft 416 kts 161°
2026-05-03 20:53 29.33288 -83.58082 28506 ft 412 kts 161°
2026-05-03 20:53 29.30796 -83.56490 28050 ft 409 kts 161°
2026-05-03 20:53 29.28310 -83.54904 27608 ft 405 kts 161°
2026-05-03 20:53 29.25847 -83.53335 27162 ft 403 kts 160°
2026-05-03 20:54 29.23401 -83.51776 26751 ft 400 kts 160°
2026-05-03 20:54 29.18592 -83.48712 25920 ft 396 kts 160°
2026-05-03 20:54 29.16191 -83.47187 25521 ft 393 kts 160°
2026-05-03 20:55 29.13804 -83.45670 25114 ft 391 kts 160°
2026-05-03 20:55 29.11424 -83.44157 24696 ft 390 kts 160°
2026-05-03 20:55 29.09054 -83.42651 24278 ft 388 kts 160°
2026-05-03 20:55 29.06701 -83.41157 23862 ft 386 kts 160°
2026-05-03 20:56 29.04360 -83.39672 23414 ft 384 kts 160°
2026-05-03 20:56 29.02034 -83.38199 22980 ft 381 kts 159°
2026-05-03 20:56 28.99726 -83.36733 22532 ft 378 kts 159°
2026-05-03 20:56 28.97471 -83.35299 22114 ft 374 kts 159°
2026-05-03 20:57 28.95203 -83.33858 21688 ft 372 kts 159°
2026-05-03 20:57 28.92946 -83.32425 21252 ft 369 kts 159°
2026-05-03 20:57 28.90700 -83.31000 20810 ft 367 kts 159°
2026-05-03 20:57 28.88478 -83.29595 20367 ft 364 kts 159°
2026-05-03 20:58 28.86260 -83.28193 19932 ft 362 kts 158°
2026-05-03 20:58 28.84086 -83.26818 19506 ft 360 kts 158°
2026-05-03 20:58 28.81898 -83.25434 19076 ft 359 kts 158°
2026-05-03 20:58 28.79718 -83.24059 18644 ft 357 kts 158°
2026-05-03 20:59 28.77548 -83.22694 18186 ft 355 kts 158°
2026-05-03 20:59 28.75399 -83.21339 17738 ft 351 kts 158°
2026-05-03 20:59 28.73269 -83.19995 17321 ft 348 kts 158°
2026-05-03 20:59 28.71151 -83.18659 16828 ft 347 kts 158°
2026-05-03 21:00 28.69041 -83.17329 16406 ft 344 kts 158°
2026-05-03 21:00 28.67655 -83.16453 16132 ft 342 kts 158°
2026-05-03 21:00 28.64909 -83.14719 15577 ft 339 kts 158°
2026-05-03 21:00 28.62850 -83.13425 15173 ft 337 kts 158°
2026-05-03 21:01 28.60798 -83.12139 14764 ft 335 kts 158°
2026-05-03 21:01 28.58758 -83.10858 14354 ft 333 kts 158°
2026-05-03 21:01 28.56734 -83.09586 13952 ft 331 kts 158°
2026-05-03 21:01 28.54724 -83.08321 13524 ft 329 kts 158°
2026-05-03 21:02 28.52721 -83.07061 13118 ft 327 kts 158°
2026-05-03 21:02 28.50740 -83.05817 12735 ft 324 kts 157°
2026-05-03 21:02 28.48774 -83.04584 12349 ft 321 kts 157°
2026-05-03 21:02 28.46845 -83.03377 11969 ft 318 kts 157°
2026-05-03 21:03 28.44915 -83.02167 11595 ft 316 kts 156°
2026-05-03 21:03 28.42996 -83.00961 11216 ft 314 kts 156°
2026-05-03 21:03 28.41085 -82.99764 11000 ft 317 kts 156°
2026-05-03 21:03 28.39136 -82.98548 10994 ft 321 kts 156°
2026-05-03 21:04 28.37172 -82.97324 10997 ft 322 kts 156°
2026-05-03 21:04 28.35207 -82.96097 10992 ft 319 kts 156°
2026-05-03 21:04 28.33303 -82.94901 10990 ft 307 kts 156°
2026-05-03 21:04 28.31431 -82.93725 10994 ft 307 kts 156°
2026-05-03 21:05 28.29567 -82.92559 10997 ft 306 kts 156°
2026-05-03 21:05 28.27714 -82.91361 10996 ft 308 kts 151°
2026-05-03 21:05 28.26078 -82.89808 10997 ft 313 kts 140°
2026-05-03 21:05 28.24521 -82.88075 10986 ft 313 kts 140°
2026-05-03 21:06 28.22970 -82.86352 10665 ft 311 kts 140°
2026-05-03 21:06 28.21428 -82.84646 10315 ft 309 kts 140°
2026-05-03 21:06 28.19889 -82.82947 9950 ft 308 kts 140°
2026-05-03 21:06 28.18353 -82.81250 9572 ft 307 kts 140°
2026-05-03 21:07 28.16827 -82.79568 9212 ft 305 kts 139°
2026-05-03 21:07 28.15314 -82.77901 9007 ft 303 kts 139°
2026-05-03 21:07 28.13818 -82.76255 9014 ft 304 kts 140°
2026-05-03 21:07 28.12283 -82.74566 9010 ft 304 kts 139°
2026-05-03 21:08 28.10786 -82.72917 9015 ft 304 kts 140°
2026-05-03 21:08 28.09267 -82.71244 9010 ft 304 kts 140°
2026-05-03 21:08 28.07751 -82.69571 9010 ft 304 kts 139°
2026-05-03 21:08 28.06249 -82.67881 9013 ft 304 kts 139°
2026-05-03 21:09 28.04758 -82.66170 9013 ft 305 kts 138°
2026-05-03 21:09 28.03274 -82.64461 9014 ft 305 kts 138°
2026-05-03 21:09 28.01681 -82.62908 9009 ft 300 kts 152°
2026-05-03 21:09 27.99816 -82.61934 9008 ft 293 kts 169°
2026-05-03 21:10 27.97830 -82.61595 9014 ft 286 kts 185°
2026-05-03 21:10 27.95833 -82.61670 8724 ft 288 kts 187°
2026-05-03 21:10 27.93878 -82.61749 8183 ft 282 kts 186°
2026-05-03 21:10 27.91918 -82.61825 7683 ft 281 kts 185°
2026-05-03 21:11 27.89954 -82.61901 7185 ft 281 kts 185°
2026-05-03 21:11 27.88010 -82.61976 6685 ft 279 kts 185°
2026-05-03 21:11 27.86065 -82.62052 6159 ft 277 kts 185°
2026-05-03 21:11 27.84133 -82.62131 5646 ft 277 kts 184°
2026-05-03 21:12 27.82215 -82.62218 5122 ft 279 kts 183°
2026-05-03 21:12 27.80340 -82.62305 4977 ft 257 kts 182°
2026-05-03 21:12 27.78642 -82.62371 4980 ft 237 kts 181°
2026-05-03 21:12 27.76993 -82.62413 4992 ft 234 kts 178°
2026-05-03 21:13 27.75452 -82.61929 5000 ft 232 kts 145°
2026-05-03 21:13 27.74382 -82.60592 4994 ft 230 kts 112°
2026-05-03 21:13 27.74010 -82.58869 5023 ft 230 kts 96°
2026-05-03 21:13 27.74089 -82.57094 4987 ft 226 kts 69°
2026-05-03 21:14 27.74961 -82.55666 4884 ft 219 kts 41°
2026-05-03 21:14 27.76158 -82.54625 4431 ft 216 kts 34°
2026-05-03 21:14 27.77409 -82.53690 3836 ft 215 kts 29°
2026-05-03 21:14 27.78851 -82.53378 3281 ft 214 kts 356°
2026-05-03 21:15 27.80181 -82.54050 3003 ft 215 kts 330°
2026-05-03 21:15 27.81547 -82.54652 2813 ft 206 kts 356°
2026-05-03 21:15 27.82926 -82.54687 2587 ft 191 kts
2026-05-03 21:15 27.84230 -82.54648 2349 ft 186 kts
2026-05-03 21:16 27.85518 -82.54604 2114 ft 184 kts
2026-05-03 21:16 27.86793 -82.54560 1896 ft 182 kts
2026-05-03 21:16 27.88060 -82.54518 1644 ft 183 kts
2026-05-03 21:16 27.89258 -82.54477 1398 ft 165 kts
2026-05-03 21:17 27.90359 -82.54440 1199 ft 150 kts
2026-05-03 21:17 27.91031 -82.54418 1062 ft 142 kts
2026-05-03 21:17 27.92341 -82.54373 834 ft 140 kts
2026-05-03 21:17 27.93306 -82.54339 646 ft 138 kts
2026-05-03 21:18 27.94268 -82.54306 461 ft 137 kts
2026-05-03 21:18 27.95227 -82.54279 276 ft 138 kts
2026-05-03 21:18 27.96192 -82.54243 136 ft 140 kts
2026-05-03 21:18 27.97119 -82.54214 51 ft 114 kts
2026-05-03 21:19 27.97609 -82.54195 47 ft 28 kts
2026-05-03 21:19 27.97682 -82.54131 46 ft 9 kts 84°
2026-05-03 21:19 27.97677 -82.54103 47 ft 3 kts 116°
2026-05-03 21:19 27.97666 -82.54084 45 ft 3 kts 125°
2026-05-03 21:20 27.97652 -82.54068 44 ft 1 kts 139°
2026-05-03 21:20 27.97647 -82.54063 47 ft 1 kts 128°
2026-05-03 21:20 27.97650 -82.54057 47 ft 1 kts 71°
2026-05-03 21:20 27.97681 -82.54054 47 ft 11 kts
2026-05-03 21:21 27.97782 -82.54062 47 ft 16 kts 357°
2026-05-03 21:21 27.97899 -82.54066 47 ft 17 kts
2026-05-03 21:21 27.98028 -82.54053 47 ft 20 kts
2026-05-03 21:21 27.98173 -82.54044 48 ft 21 kts
2026-05-03 21:22 27.98324 -82.54043 48 ft 22 kts
2026-05-03 21:22 27.98479 -82.54039 48 ft 23 kts
2026-05-03 21:22 27.98629 -82.54027 48 ft 16 kts 18°
2026-05-03 21:22 27.98664 -82.53913 48 ft 17 kts 90°
2026-05-03 21:23 27.98658 -82.53728 48 ft 31 kts 92°
2026-05-03 21:23 27.98653 -82.53499 67 ft 26 kts 91°
2026-05-03 21:23 27.98643 -82.53282 54 ft 31 kts 92°